Time,TemperatureF,DewpointF,PressureIn,WindDirection,WindDirectionDegrees,WindSpeedMPH,WindSpeedGustMPH,Humidity,HourlyPrecipIn,Conditions,Clouds,dailyrainin,SoftwareType,DateUTC
2013-01-25 00:02:00,11.0,5.0,30.17,SSE,162,12.0,-999.0,75,-99.99,,,-99.99,,2013-01-25 06:02:00,
2013-01-25 00:11:00,11.0,5.0,30.17,SSE,162,12.0,-999.0,75,-99.99,,,-99.99,,2013-01-25 06:11:00,
2013-01-25 00:21:00,11.0,5.0,30.16,SSE,155,12.0,-999.0,75,-99.99,,,-99.99,,2013-01-25 06:21:00,
2013-01-25 00:32:00,10.0,4.0,30.15,SSE,154,9.0,-999.0,76,-99.99,,,-99.99,,2013-01-25 06:32:00,
2013-01-25 00:42:00,10.0,4.0,30.15,SSE,154,9.0,-999.0,76,-99.99,,,-99.99,,2013-01-25 06:42:00,
2013-01-25 00:52:00,10.0,4.0,30.14,SSE,157,9.0,-999.0,76,-99.99,,,-99.99,,2013-01-25 06:52:00,
2013-01-25 01:02:00,10.0,4.0,30.14,SSE,155,6.0,-999.0,77,-99.99,,,-99.99,,2013-01-25 07:02:00,
2013-01-25 01:11:00,10.0,4.0,30.14,SSE,155,6.0,-999.0,77,-99.99,,,-99.99,,2013-01-25 07:11:00,
2013-01-25 01:21:00,10.0,5.0,30.13,SSE,157,9.0,-999.0,78,-99.99,,,-99.99,,2013-01-25 07:21:00,
2013-01-25 01:31:00,10.0,5.0,30.12,SSE,152,11.0,-999.0,78,-99.99,,,-99.99,,2013-01-25 07:31:00,
2013-01-25 01:42:00,10.0,5.0,30.12,SSE,152,11.0,-999.0,78,-99.99,,,-99.99,,2013-01-25 07:42:00,
2013-01-25 01:52:00,10.0,5.0,30.11,SSE,153,8.0,-999.0,78,-99.99,,,-99.99,,2013-01-25 07:52:00,
2013-01-25 02:01:00,10.0,5.0,30.11,SSE,155,7.0,-999.0,79,-99.99,,,-99.99,,2013-01-25 08:01:00,
2013-01-25 02:11:00,10.0,5.0,30.10,South,169,5.0,-999.0,79,-99.99,,,-99.99,,2013-01-25 08:11:00,
2013-01-25 02:21:00,10.0,5.0,30.10,South,169,5.0,-999.0,79,-99.99,,,-99.99,,2013-01-25 08:21:00,
2013-01-25 02:32:00,11.0,6.0,30.10,South,170,3.0,-999.0,79,-99.99,,,-99.99,,2013-01-25 08:32:00,
2013-01-25 02:41:00,11.0,6.0,30.10,South,170,3.0,-999.0,79,-99.99,,,-99.99,,2013-01-25 08:41:00,
2013-01-25 02:52:00,12.0,6.0,30.08,South,172,10.0,-999.0,77,-99.99,,,-99.99,,2013-01-25 08:52:00,
2013-01-25 03:01:00,11.0,5.0,30.08,South,185,10.0,-999.0,77,-99.99,,,-99.99,,2013-01-25 09:01:00,
2013-01-25 03:11:00,11.0,5.0,30.08,South,185,10.0,-999.0,77,-99.99,,,-99.99,,2013-01-25 09:11:00,
2013-01-25 03:21:00,12.0,6.0,30.07,SSW,194,6.0,-999.0,76,-99.99,,,-99.99,,2013-01-25 09:21:00,
2013-01-25 03:31:00,13.0,7.0,30.07,SSW,210,7.0,-999.0,75,-99.99,,,-99.99,,2013-01-25 09:31:00,
2013-01-25 03:41:00,13.0,7.0,30.07,SSW,210,7.0,-999.0,75,-99.99,,,-99.99,,2013-01-25 09:41:00,
2013-01-25 03:52:00,13.0,7.0,30.07,SSW,210,7.0,-999.0,75,-99.99,,,-99.99,,2013-01-25 09:52:00,
2013-01-25 04:01:00,13.0,7.0,30.07,SW,223,3.0,-999.0,76,-99.99,,,-99.99,,2013-01-25 10:01:00,
2013-01-25 04:12:00,13.0,7.0,30.06,SW,236,3.0,-999.0,76,-99.99,,,-99.99,,2013-01-25 10:12:00,
2013-01-25 04:21:00,13.0,7.0,30.06,SW,236,3.0,-999.0,76,-99.99,,,-99.99,,2013-01-25 10:21:00,
2013-01-25 04:32:00,13.0,7.0,30.06,WSW,241,4.0,-999.0,76,-99.99,,,-99.99,,2013-01-25 10:32:00,
2013-01-25 04:42:00,13.0,7.0,30.06,WSW,241,4.0,-999.0,76,-99.99,,,-99.99,,2013-01-25 10:42:00,
2013-01-25 04:51:00,14.0,8.0,30.05,West,265,4.0,-999.0,77,-99.99,,,-99.99,,2013-01-25 10:51:00,
2013-01-25 05:02:00,14.0,8.0,30.04,WSW,246,4.0,-999.0,78,-99.99,,,-99.99,,2013-01-25 11:02:00,
2013-01-25 05:11:00,14.0,8.0,30.04,WSW,246,4.0,-999.0,78,-99.99,,,-99.99,,2013-01-25 11:11:00,
2013-01-25 05:22:00,14.0,9.0,30.03,SW,236,2.0,-999.0,80,-99.99,,,-99.99,,2013-01-25 11:22:00,
2013-01-25 05:32:00,15.0,10.0,30.03,West,265,3.0,-999.0,80,-99.99,,,-99.99,,2013-01-25 11:32:00,
2013-01-25 05:42:00,15.0,10.0,30.03,West,265,3.0,-999.0,80,-99.99,,,-99.99,,2013-01-25 11:42:00,
2013-01-25 05:52:00,16.0,11.0,30.03,North,360,4.0,-999.0,80,-99.99,,,-99.99,,2013-01-25 11:52:00,
2013-01-25 06:02:00,17.0,12.0,30.03,WNW,303,4.0,-999.0,81,-99.99,,,-99.99,,2013-01-25 12:02:00,
2013-01-25 06:11:00,17.0,12.0,30.03,WNW,303,4.0,-999.0,81,-99.99,,,-99.99,,2013-01-25 12:11:00,
2013-01-25 06:22:00,16.0,11.0,30.03,North,360,4.0,-999.0,82,-99.99,,,-99.99,,2013-01-25 12:22:00,
2013-01-25 06:32:00,15.0,9.0,30.04,North,360,14.0,-999.0,77,-99.99,,,-99.99,,2013-01-25 12:32:00,
2013-01-25 06:42:00,15.0,9.0,30.04,North,360,14.0,-999.0,77,-99.99,,,-99.99,,2013-01-25 12:42:00,
2013-01-25 06:53:00,14.0,7.0,30.04,WNW,302,15.0,-999.0,72,-99.99,,,-99.99,,2013-01-25 12:53:00,
2013-01-25 07:02:00,13.0,6.0,30.05,North,360,13.0,-999.0,74,-99.99,,,-99.99,,2013-01-25 13:02:00,
2013-01-25 07:11:00,13.0,6.0,30.05,North,360,13.0,-999.0,74,-99.99,,,-99.99,,2013-01-25 13:11:00,
2013-01-25 07:22:00,12.0,5.0,30.06,North,360,12.0,-999.0,73,-99.99,,,-99.99,,2013-01-25 13:22:00,
2013-01-25 07:32:00,11.0,4.0,30.07,North,360,11.0,-999.0,72,-99.99,,,-99.99,,2013-01-25 13:32:00,
2013-01-25 07:42:00,11.0,4.0,30.07,North,360,11.0,-999.0,72,-99.99,,,-99.99,,2013-01-25 13:42:00,
2013-01-25 07:52:00,9.0,4.0,30.08,North,360,5.0,-999.0,78,-99.99,,,-99.99,,2013-01-25 13:52:00,
2013-01-25 08:03:00,8.0,3.0,30.08,North,360,10.0,-999.0,78,-99.99,,,-99.99,,2013-01-25 14:03:00,
2013-01-25 08:12:00,8.0,3.0,30.08,North,360,10.0,-999.0,78,-99.99,,,-99.99,,2013-01-25 14:12:00,
2013-01-25 08:22:00,7.0,1.0,30.09,WNW,303,9.0,-999.0,77,-99.99,,,-99.99,,2013-01-25 14:22:00,
2013-01-25 08:32:00,6.0,0.0,30.11,North,360,9.0,-999.0,75,-99.99,,,-99.99,,2013-01-25 14:32:00,
2013-01-25 08:42:00,6.0,0.0,30.11,North,360,9.0,-999.0,75,-99.99,,,-99.99,,2013-01-25 14:42:00,
2013-01-25 08:52:00,6.0,-1.0,30.11,North,360,13.0,-999.0,73,-99.99,,,-99.99,,2013-01-25 14:52:00,
2013-01-25 09:02:00,5.0,-2.0,30.12,North,360,14.0,-999.0,73,-99.99,,,-99.99,,2013-01-25 15:02:00,
2013-01-25 09:12:00,5.0,-2.0,30.12,North,360,14.0,-999.0,73,-99.99,,,-99.99,,2013-01-25 15:12:00,
2013-01-25 09:22:00,5.0,-2.0,30.13,North,360,14.0,-999.0,72,-99.99,,,-99.99,,2013-01-25 15:22:00,
2013-01-25 09:32:00,4.0,-3.0,30.14,North,360,15.0,-999.0,73,-99.99,,,-99.99,,2013-01-25 15:32:00,
2013-01-25 09:42:00,4.0,-3.0,30.14,North,360,15.0,-999.0,73,-99.99,,,-99.99,,2013-01-25 15:42:00,
2013-01-25 09:52:00,4.0,-3.0,30.15,North,360,16.0,-999.0,72,-99.99,,,-99.99,,2013-01-25 15:52:00,
2013-01-25 10:03:00,4.0,-3.0,30.16,North,360,17.0,-999.0,73,-99.99,,,-99.99,,2013-01-25 16:03:00,
2013-01-25 10:12:00,4.0,-3.0,30.16,North,360,17.0,-999.0,73,-99.99,,,-99.99,,2013-01-25 16:12:00,
2013-01-25 10:22:00,3.0,-4.0,30.16,North,360,12.0,-999.0,73,-99.99,,,-99.99,,2013-01-25 16:22:00,
2013-01-25 10:32:00,3.0,-3.0,30.17,WNW,302,13.0,-999.0,75,-99.99,,,-99.99,,2013-01-25 16:32:00,
2013-01-25 10:42:00,3.0,-3.0,30.17,WNW,302,13.0,-999.0,75,-99.99,,,-99.99,,2013-01-25 16:42:00,
2013-01-25 10:52:00,3.0,-3.0,30.18,NW,319,14.0,-999.0,74,-99.99,,,-99.99,,2013-01-25 16:52:00,
2013-01-25 11:02:00,3.0,-4.0,30.19,North,360,15.0,-999.0,73,-99.99,,,-99.99,,2013-01-25 17:02:00,
2013-01-25 11:12:00,3.0,-4.0,30.19,North,360,15.0,-999.0,73,-99.99,,,-99.99,,2013-01-25 17:12:00,
2013-01-25 11:22:00,2.0,-3.0,30.21,North,360,13.0,-999.0,78,-99.99,,,-99.99,,2013-01-25 17:22:00,
2013-01-25 11:32:00,2.0,-2.0,30.22,North,360,12.0,-999.0,81,-99.99,,,-99.99,,2013-01-25 17:32:00,
2013-01-25 11:42:00,2.0,-2.0,30.22,North,360,12.0,-999.0,81,-99.99,,,-99.99,,2013-01-25 17:42:00,
2013-01-25 11:52:00,2.0,-3.0,30.22,West,265,12.0,-999.0,78,-99.99,,,-99.99,,2013-01-25 17:52:00,
2013-01-25 12:03:00,2.0,-3.0,30.22,West,265,12.0,-999.0,78,-99.99,,,-99.99,,2013-01-25 18:03:00,
2013-01-25 12:12:00,2.0,-3.0,30.22,West,265,12.0,-999.0,78,-99.99,,,-99.99,,2013-01-25 18:12:00,
2013-01-25 12:23:00,2.0,-4.0,30.22,North,360,12.0,-999.0,77,-99.99,,,-99.99,,2013-01-25 18:23:00,
2013-01-25 12:33:00,3.0,-3.0,30.22,NW,319,12.0,-999.0,75,-99.99,,,-99.99,,2013-01-25 18:33:00,
2013-01-25 12:42:00,3.0,-3.0,30.22,NW,319,12.0,-999.0,75,-99.99,,,-99.99,,2013-01-25 18:42:00,
2013-01-25 12:52:00,3.0,-3.0,30.22,North,360,11.0,-999.0,76,-99.99,,,-99.99,,2013-01-25 18:52:00,
2013-01-25 13:03:00,3.0,-3.0,30.23,North,360,13.0,-999.0,74,-99.99,,,-99.99,,2013-01-25 19:03:00,
2013-01-25 13:12:00,3.0,-3.0,30.23,North,360,13.0,-999.0,74,-99.99,,,-99.99,,2013-01-25 19:12:00,
2013-01-25 13:22:00,2.0,-4.0,30.24,WNW,303,12.0,-999.0,74,-99.99,,,-99.99,,2013-01-25 19:22:00,
2013-01-25 13:32:00,3.0,-3.0,30.24,North,360,12.0,-999.0,74,-99.99,,,-99.99,,2013-01-25 19:32:00,
2013-01-25 13:42:00,3.0,-3.0,30.24,North,360,12.0,-999.0,74,-99.99,,,-99.99,,2013-01-25 19:42:00,
2013-01-25 13:53:00,3.0,-3.0,30.25,North,360,12.0,-999.0,76,-99.99,,,-99.99,,2013-01-25 19:53:00,
2013-01-25 14:02:00,3.0,-3.0,30.25,North,360,12.0,-999.0,76,-99.99,,,-99.99,,2013-01-25 20:02:00,
2013-01-25 14:12:00,3.0,-3.0,30.25,North,360,12.0,-999.0,76,-99.99,,,-99.99,,2013-01-25 20:12:00,
2013-01-25 14:22:00,3.0,-3.0,30.25,North,360,12.0,-999.0,76,-99.99,,,-99.99,,2013-01-25 20:22:00,
2013-01-25 14:32:00,3.0,-3.0,30.27,North,360,14.0,-999.0,74,-99.99,,,-99.99,,2013-01-25 20:32:00,
2013-01-25 14:42:00,3.0,-3.0,30.27,North,360,14.0,-999.0,74,-99.99,,,-99.99,,2013-01-25 20:42:00,
2013-01-25 14:52:00,3.0,-4.0,30.26,North,360,11.0,-999.0,73,-99.99,,,-99.99,,2013-01-25 20:52:00,
2013-01-25 15:02:00,3.0,-4.0,30.27,North,360,12.0,-999.0,72,-99.99,,,-99.99,,2013-01-25 21:02:00,
2013-01-25 15:11:00,3.0,-4.0,30.27,North,360,12.0,-999.0,72,-99.99,,,-99.99,,2013-01-25 21:11:00,
2013-01-25 15:22:00,4.0,-3.0,30.27,North,360,8.0,-999.0,72,-99.99,,,-99.99,,2013-01-25 21:22:00,
2013-01-25 15:32:00,4.0,-3.0,30.28,North,360,7.0,-999.0,73,-99.99,,,-99.99,,2013-01-25 21:32:00,
2013-01-25 15:42:00,4.0,-3.0,30.28,North,360,7.0,-999.0,73,-99.99,,,-99.99,,2013-01-25 21:42:00,
2013-01-25 15:52:00,4.0,-3.0,30.28,North,360,7.0,-999.0,73,-99.99,,,-99.99,,2013-01-25 21:52:00,
2013-01-25 16:02:00,3.0,-4.0,30.28,North,360,7.0,-999.0,71,-99.99,,,-99.99,,2013-01-25 22:02:00,
2013-01-25 16:11:00,3.0,-4.0,30.28,North,360,7.0,-999.0,71,-99.99,,,-99.99,,2013-01-25 22:11:00,
2013-01-25 16:22:00,3.0,-4.0,30.29,North,360,7.0,-999.0,72,-99.99,,,-99.99,,2013-01-25 22:22:00,
2013-01-25 16:32:00,3.0,-4.0,30.29,North,360,5.0,-999.0,73,-99.99,,,-99.99,,2013-01-25 22:32:00,
2013-01-25 16:42:00,3.0,-4.0,30.29,North,360,5.0,-999.0,73,-99.99,,,-99.99,,2013-01-25 22:42:00,
2013-01-25 16:52:00,3.0,-4.0,30.29,North,360,5.0,-999.0,73,-99.99,,,-99.99,,2013-01-25 22:52:00,
2013-01-25 17:02:00,3.0,-4.0,30.29,North,360,5.0,-999.0,73,-99.99,,,-99.99,,2013-01-25 23:02:00,
2013-01-25 17:11:00,3.0,-4.0,30.29,North,360,5.0,-999.0,73,-99.99,,,-99.99,,2013-01-25 23:11:00,
2013-01-25 17:22:00,3.0,-3.0,30.30,North,360,2.0,-999.0,74,-99.99,,,-99.99,,2013-01-25 23:22:00,
2013-01-25 17:32:00,2.0,-4.0,30.31,North,360,5.0,-999.0,74,-99.99,,,-99.99,,2013-01-25 23:32:00,
2013-01-25 17:42:00,2.0,-4.0,30.31,North,360,5.0,-999.0,74,-99.99,,,-99.99,,2013-01-25 23:42:00,
2013-01-25 17:52:00,1.0,-5.0,30.30,North,360,3.0,-999.0,75,-99.99,,,-99.99,,2013-01-25 23:52:00,
2013-01-25 18:02:00,1.0,-5.0,30.31,North,360,1.0,-999.0,76,-99.99,,,-99.99,,2013-01-26 00:02:00,
2013-01-25 18:11:00,1.0,-5.0,30.31,North,360,1.0,-999.0,76,-99.99,,,-99.99,,2013-01-26 00:11:00,
2013-01-25 18:22:00,1.0,-5.0,30.32,North,360,3.0,-999.0,75,-99.99,,,-99.99,,2013-01-26 00:22:00,
2013-01-25 18:32:00,0.0,-6.0,30.33,North,360,4.0,-999.0,75,-99.99,,,-99.99,,2013-01-26 00:32:00,
2013-01-25 18:42:00,0.0,-6.0,30.33,North,360,4.0,-999.0,75,-99.99,,,-99.99,,2013-01-26 00:42:00,
2013-01-25 18:52:00,0.0,-6.0,30.33,North,360,4.0,-999.0,76,-99.99,,,-99.99,,2013-01-26 00:52:00,
2013-01-25 19:02:00,0.0,-5.0,30.34,North,360,5.0,-999.0,77,-99.99,,,-99.99,,2013-01-26 01:02:00,
2013-01-25 19:11:00,0.0,-5.0,30.34,North,360,5.0,-999.0,77,-99.99,,,-99.99,,2013-01-26 01:11:00,
2013-01-25 19:22:00,0.0,-5.0,30.34,North,360,5.0,-999.0,77,-99.99,,,-99.99,,2013-01-26 01:22:00,
2013-01-25 19:32:00,0.0,-5.0,30.36,North,360,2.0,-999.0,78,-99.99,,,-99.99,,2013-01-26 01:32:00,
2013-01-25 19:42:00,0.0,-5.0,30.36,North,360,2.0,-999.0,78,-99.99,,,-99.99,,2013-01-26 01:42:00,
2013-01-25 19:52:00,0.0,-5.0,30.37,North,360,2.0,-999.0,78,-99.99,,,-99.99,,2013-01-26 01:52:00,
2013-01-25 20:01:00,0.0,-5.0,30.37,North,360,3.0,-999.0,77,-99.99,,,-99.99,,2013-01-26 02:01:00,
2013-01-25 20:11:00,0.0,-5.0,30.37,North,360,3.0,-999.0,77,-99.99,,,-99.99,,2013-01-26 02:11:00,
2013-01-25 20:22:00,0.0,-5.0,30.37,North,360,3.0,-999.0,77,-99.99,,,-99.99,,2013-01-26 02:22:00,
2013-01-25 20:32:00,0.0,-5.0,30.38,North,360,2.0,-999.0,77,-99.99,,,-99.99,,2013-01-26 02:32:00,
2013-01-25 20:42:00,0.0,-5.0,30.38,North,360,2.0,-999.0,77,-99.99,,,-99.99,,2013-01-26 02:42:00,
2013-01-25 20:52:00,-1.0,-6.0,30.38,North,360,0.0,-999.0,77,-99.99,,,-99.99,,2013-01-26 02:52:00,
2013-01-25 21:02:00,-1.0,-6.0,30.37,NW,312,1.0,-999.0,77,-99.99,,,-99.99,,2013-01-26 03:02:00,
2013-01-25 21:11:00,-1.0,-6.0,30.37,NW,312,1.0,-999.0,77,-99.99,,,-99.99,,2013-01-26 03:11:00,
2013-01-25 21:21:00,-1.0,-6.0,30.36,NW,312,0.0,-999.0,78,-99.99,,,-99.99,,2013-01-26 03:21:00,
2013-01-25 21:31:00,-1.0,-6.0,30.37,NW,312,0.0,-999.0,78,-99.99,,,-99.99,,2013-01-26 03:31:00,
2013-01-25 21:42:00,-1.0,-6.0,30.37,NW,312,0.0,-999.0,78,-99.99,,,-99.99,,2013-01-26 03:42:00,
2013-01-25 21:51:00,-1.0,-6.0,30.36,NW,312,0.0,-999.0,78,-99.99,,,-99.99,,2013-01-26 03:51:00,
2013-01-25 22:02:00,-2.0,-7.0,30.37,NW,315,0.0,-999.0,78,-99.99,,,-99.99,,2013-01-26 04:02:00,
2013-01-25 22:12:00,-2.0,-7.0,30.37,NW,315,0.0,-999.0,78,-99.99,,,-99.99,,2013-01-26 04:12:00,
2013-01-25 22:21:00,-2.0,-7.0,30.36,NW,315,0.0,-999.0,78,-99.99,,,-99.99,,2013-01-26 04:21:00,
2013-01-25 22:32:00,-2.0,-7.0,30.37,NW,315,0.0,-999.0,78,-99.99,,,-99.99,,2013-01-26 04:32:00,
2013-01-25 22:42:00,-2.0,-7.0,30.37,NW,315,0.0,-999.0,78,-99.99,,,-99.99,,2013-01-26 04:42:00,
2013-01-25 22:52:00,-2.0,-7.0,30.37,NW,315,0.0,-999.0,78,-99.99,,,-99.99,,2013-01-26 04:52:00,
2013-01-25 23:03:00,-3.0,-8.0,30.38,NW,315,0.0,-999.0,78,-99.99,,,-99.99,,2013-01-26 05:03:00,
2013-01-25 23:12:00,-3.0,-8.0,30.38,NW,315,0.0,-999.0,78,-99.99,,,-99.99,,2013-01-26 05:12:00,
2013-01-25 23:23:00,-3.0,-8.0,30.39,NW,315,0.0,-999.0,79,-99.99,,,-99.99,,2013-01-26 05:23:00,
2013-01-25 23:33:00,-3.0,-8.0,30.39,NW,315,0.0,-999.0,79,-99.99,,,-99.99,,2013-01-26 05:33:00,
2013-01-25 23:41:00,-3.0,-8.0,30.39,NW,315,0.0,-999.0,79,-99.99,,,-99.99,,2013-01-26 05:41:00,
2013-01-25 23:52:00,-3.0,-8.0,30.39,NW,315,0.0,-999.0,79,-99.99,,,-99.99,,2013-01-26 05:52:00,